Time,TemperatureF,DewpointF,PressureIn,WindDirection,WindDirectionDegrees,WindSpeedMPH,WindSpeedGustMPH,Humidity,HourlyPrecipIn,Conditions,Clouds,dailyrainin,SoftwareType,DateUTC
2013-03-20 00:00:00,48.9,9.6,30.13,NW,323,0.0,5.0,20,0.00,,FEW250,0.00,VWS V14.01,2013-03-20 04:00:00,
2013-03-20 00:04:00,48.8,9.5,30.13,North,358,2.0,3.0,20,0.00,,SCT250,0.00,VWS V14.01,2013-03-20 04:04:00,
2013-03-20 00:10:00,48.5,10.4,30.13,NW,309,0.0,3.0,21,0.00,,SCT250,0.00,VWS V14.01,2013-03-20 04:10:00,
2013-03-20 00:12:00,48.5,9.3,30.13,NNW,347,0.0,2.0,20,0.00,,SCT250,0.00,VWS V14.01,2013-03-20 04:12:00,
2013-03-20 00:18:00,48.2,10.1,30.13,West,278,0.0,2.0,21,0.00,,SCT250,0.00,VWS V14.01,2013-03-20 04:18:00,
2013-03-20 00:24:00,47.6,10.6,30.13,NW,308,0.0,2.0,22,0.00,,SCT250,0.00,VWS V14.01,2013-03-20 04:24:00,
2013-03-20 00:30:00,47.3,9.4,30.13,NW,311,0.0,3.0,21,0.00,,SCT250,0.00,VWS V14.01,2013-03-20 04:30:00,
2013-03-20 00:36:00,47.1,10.2,30.13,NW,318,0.0,2.0,22,0.00,,SCT250,0.00,VWS V14.01,2013-03-20 04:36:00,
2013-03-20 00:42:00,46.8,10.0,30.13,WNW,293,0.0,1.0,22,0.00,,SCT250,0.00,VWS V14.01,2013-03-20 04:42:00,
2013-03-20 00:48:00,46.5,9.7,30.13,NNW,330,0.0,3.0,22,0.00,,SCT250,0.00,VWS V14.01,2013-03-20 04:48:00,
2013-03-20 00:55:00,46.4,8.6,30.13,NW,322,2.0,2.0,21,0.00,,SCT250,0.00,VWS V14.01,2013-03-20 04:55:00,
2013-03-20 01:00:00,46.4,8.6,30.13,NW,305,2.0,4.0,21,0.00,,SCT250,0.00,VWS V14.01,2013-03-20 05:00:00,
2013-03-20 01:05:00,46.5,9.7,30.13,NW,305,0.0,4.0,22,0.00,,BKN250,0.00,VWS V14.01,2013-03-20 05:05:00,
2013-03-20 01:11:00,46.2,11.4,30.13,NW,305,0.0,0.0,24,0.00,,BKN250,0.00,VWS V14.01,2013-03-20 05:11:00,
2013-03-20 01:18:00,45.8,11.1,30.13,NW,305,0.0,2.0,24,0.00,,BKN250,0.00,VWS V14.01,2013-03-20 05:18:00,
2013-03-20 01:24:00,45.8,9.1,30.13,NW,308,0.0,3.0,22,0.00,,BKN250,0.00,VWS V14.01,2013-03-20 05:24:00,
2013-03-20 01:30:00,45.7,10.0,30.13,NW,308,0.0,3.0,23,0.00,,BKN250,0.00,VWS V14.01,2013-03-20 05:30:00,
2013-03-20 01:36:00,45.5,8.9,30.13,NW,322,1.0,3.0,22,0.00,,BKN250,0.00,VWS V14.01,2013-03-20 05:36:00,
2013-03-20 01:42:00,45.4,7.8,30.13,NW,314,0.0,2.0,21,0.00,,BKN250,0.00,VWS V14.01,2013-03-20 05:42:00,
2013-03-20 01:48:00,45.4,4.4,30.13,NW,306,1.0,3.0,18,0.00,,BKN250,0.00,VWS V14.01,2013-03-20 05:48:00,
2013-03-20 01:54:00,45.4,5.6,30.13,NW,312,0.0,3.0,19,0.00,,BKN250,0.00,VWS V14.01,2013-03-20 05:54:00,
2013-03-20 02:00:00,45.4,4.4,30.13,WNW,301,0.0,3.0,18,0.00,,BKN250,0.00,VWS V14.01,2013-03-20 06:00:00,
2013-03-20 02:06:00,45.4,5.6,30.13,NW,323,0.0,2.0,19,0.00,,BKN250,0.00,VWS V14.01,2013-03-20 06:06:00,
2013-03-20 02:12:00,45.1,5.3,30.13,NW,323,0.0,2.0,19,0.00,,BKN250,0.00,VWS V14.01,2013-03-20 06:12:00,
2013-03-20 02:18:00,44.6,7.1,30.12,NW,323,0.0,2.0,21,0.00,,BKN250,0.00,VWS V14.01,2013-03-20 06:18:00,
2013-03-20 02:24:00,44.2,6.8,30.12,NW,323,0.0,1.0,21,0.00,,BKN250,0.00,VWS V14.01,2013-03-20 06:24:00,
2013-03-20 02:30:00,43.9,5.4,30.13,NW,326,0.0,1.0,20,0.00,,BKN250,0.00,VWS V14.01,2013-03-20 06:30:00,
2013-03-20 02:38:00,43.9,4.3,30.13,NW,326,0.0,1.0,19,0.00,,BKN250,0.00,VWS V14.01,2013-03-20 06:38:00,
2013-03-20 02:44:00,43.9,4.3,30.13,NW,326,0.0,0.0,19,0.00,,BKN250,0.00,VWS V14.01,2013-03-20 06:44:00,
2013-03-20 02:50:00,43.9,4.3,30.13,NW,326,0.0,1.0,19,0.00,,BKN250,0.00,VWS V14.01,2013-03-20 06:50:00,
2013-03-20 02:56:00,43.6,5.2,30.13,NW,326,0.0,1.0,20,0.00,,BKN250,0.00,VWS V14.01,2013-03-20 06:56:00,
2013-03-20 03:02:00,43.2,7.9,30.13,NNW,339,0.0,1.0,23,0.00,,BKN250,0.00,VWS V14.01,2013-03-20 07:02:00,
2013-03-20 03:08:00,42.6,9.3,30.13,NNW,339,0.0,1.0,25,0.00,,BKN250,0.00,VWS V14.01,2013-03-20 07:08:00,
2013-03-20 03:15:00,42.2,6.1,30.13,NNW,331,0.0,1.0,22,0.00,,BKN250,0.00,VWS V14.01,2013-03-20 07:15:00,
2013-03-20 03:20:00,42.1,6.0,30.13,NNW,331,0.0,1.0,22,0.00,,BKN250,0.00,VWS V14.01,2013-03-20 07:20:00,
2013-03-20 03:25:00,42.1,6.0,30.13,NNW,330,0.0,1.0,22,0.00,,BKN250,0.00,VWS V14.01,2013-03-20 07:25:00,
2013-03-20 03:31:00,42.1,5.0,30.13,NW,309,0.0,0.0,21,0.00,,BKN250,0.00,VWS V14.01,2013-03-20 07:31:00,
2013-03-20 03:37:00,42.1,6.0,30.13,NW,309,0.0,1.0,22,0.00,,BKN250,0.00,VWS V14.01,2013-03-20 07:37:00,
2013-03-20 03:43:00,41.8,7.7,30.13,NW,309,0.0,1.0,24,0.00,,BKN250,0.00,VWS V14.01,2013-03-20 07:43:00,
2013-03-20 03:50:00,41.3,6.3,30.12,NW,309,0.0,1.0,23,0.00,,BKN250,0.00,VWS V14.01,2013-03-20 07:50:00,
2013-03-20 03:56:00,40.9,6.9,30.12,NW,309,0.0,0.0,24,0.00,,BKN250,0.00,VWS V14.01,2013-03-20 07:56:00,
2013-03-20 04:02:00,40.6,7.6,30.12,NW,309,0.0,0.0,25,0.00,,SCT250,0.00,VWS V14.01,2013-03-20 08:02:00,
2013-03-20 04:08:00,40.3,5.5,30.12,NW,309,0.0,0.0,23,0.00,,SCT250,0.00,VWS V14.01,2013-03-20 08:08:00,
2013-03-20 04:14:00,40.2,8.1,30.12,NW,309,0.0,1.0,26,0.00,,SCT250,0.00,VWS V14.01,2013-03-20 08:14:00,
2013-03-20 04:20:00,40.3,5.5,30.12,NW,319,0.0,5.0,23,0.00,,SCT250,0.00,VWS V14.01,2013-03-20 08:20:00,
2013-03-20 04:26:00,41.1,6.1,30.12,NW,311,1.0,4.0,23,0.00,,SCT250,0.00,VWS V14.01,2013-03-20 08:26:00,
2013-03-20 04:32:00,41.6,4.6,30.12,WNW,295,0.0,0.0,21,0.00,,SCT250,0.00,VWS V14.01,2013-03-20 08:32:00,
2013-03-20 04:38:00,41.6,6.6,30.12,WNW,295,0.0,1.0,23,0.00,,SCT250,0.00,VWS V14.01,2013-03-20 08:38:00,
2013-03-20 04:44:00,41.6,4.6,30.12,NW,314,2.0,3.0,21,0.00,,SCT250,0.00,VWS V14.01,2013-03-20 08:44:00,
2013-03-20 04:50:00,41.6,5.6,30.12,NNE,25,0.0,3.0,22,0.00,,SCT250,0.00,VWS V14.01,2013-03-20 08:50:00,
2013-03-20 04:56:00,41.5,6.5,30.12,NNE,25,0.0,0.0,23,0.00,,SCT250,0.00,VWS V14.01,2013-03-20 08:56:00,
2013-03-20 05:02:00,40.9,7.8,30.12,NNE,25,0.0,0.0,25,0.00,,BKN120,0.00,VWS V14.01,2013-03-20 09:02:00,
2013-03-20 05:08:00,40.5,5.6,30.12,NNE,25,0.0,1.0,23,0.00,,BKN120,0.00,VWS V14.01,2013-03-20 09:08:00,
2013-03-20 05:14:00,40.2,8.1,30.13,NNE,25,0.0,0.0,26,0.00,,BKN120,0.00,VWS V14.01,2013-03-20 09:14:00,
2013-03-20 05:20:00,39.8,6.9,30.13,NNE,25,0.0,0.0,25,0.00,,BKN120,0.00,VWS V14.01,2013-03-20 09:20:00,
2013-03-20 05:27:00,39.3,8.1,30.13,NNE,25,0.0,0.0,27,0.00,,BKN120,0.00,VWS V14.01,2013-03-20 09:27:00,
2013-03-20 05:33:00,38.9,8.6,30.13,NNE,25,0.0,0.0,28,0.00,,BKN120,0.00,VWS V14.01,2013-03-20 09:33:00,
2013-03-20 05:39:00,38.3,9.6,30.13,NNE,25,0.0,0.0,30,0.00,,BKN120,0.00,VWS V14.01,2013-03-20 09:39:00,
2013-03-20 05:45:00,37.9,6.1,30.13,North,358,0.0,2.0,26,0.00,,BKN120,0.00,VWS V14.01,2013-03-20 09:45:00,
2013-03-20 05:50:00,37.6,6.7,30.13,North,358,0.0,2.0,27,0.00,,BKN120,0.00,VWS V14.01,2013-03-20 09:50:00,
2013-03-20 05:57:00,37.2,12.1,30.13,North,358,0.0,0.0,35,0.00,,BKN120,0.00,VWS V14.01,2013-03-20 09:57:00,
2013-03-20 06:03:00,36.8,12.4,30.13,North,358,0.0,0.0,36,0.00,,BKN120,0.00,VWS V14.01,2013-03-20 10:03:00,
2013-03-20 06:09:00,36.5,13.9,30.13,North,358,0.0,0.0,39,0.00,,BKN120,0.00,VWS V14.01,2013-03-20 10:09:00,
2013-03-20 06:15:00,36.5,8.0,30.15,North,358,0.0,0.0,30,0.00,,BKN120,0.00,VWS V14.01,2013-03-20 10:15:00,
2013-03-20 06:20:00,36.6,10.2,30.15,North,358,0.0,0.0,33,0.00,,BKN120,0.00,VWS V14.01,2013-03-20 10:20:00,
2013-03-20 06:26:00,36.9,7.6,30.15,North,358,0.0,0.0,29,0.00,,BKN120,0.00,VWS V14.01,2013-03-20 10:26:00,
2013-03-20 06:32:00,37.0,8.5,30.15,North,358,0.0,0.0,30,0.00,,BKN120,0.00,VWS V14.01,2013-03-20 10:32:00,
2013-03-20 06:38:00,37.2,6.3,30.15,North,358,0.0,0.0,27,0.00,,BKN120,0.00,VWS V14.01,2013-03-20 10:38:00,
2013-03-20 06:44:00,37.2,7.1,30.15,North,358,0.0,0.0,28,0.00,,BKN120,0.00,VWS V14.01,2013-03-20 10:44:00,
2013-03-20 06:50:00,37.0,8.5,30.15,North,358,0.0,0.0,30,0.00,,BKN120,0.00,VWS V14.01,2013-03-20 10:50:00,
2013-03-20 06:56:00,36.9,9.8,30.15,North,358,0.0,0.0,32,0.00,,BKN120,0.00,VWS V14.01,2013-03-20 10:56:00,
2013-03-20 07:02:00,36.8,9.0,30.16,North,358,0.0,1.0,31,0.00,,BKN120,0.00,VWS V14.01,2013-03-20 11:02:00,
2013-03-20 07:08:00,36.6,10.2,30.16,North,358,0.0,1.0,33,0.00,,BKN120,0.00,VWS V14.01,2013-03-20 11:08:00,
2013-03-20 07:14:00,36.5,10.1,30.16,North,358,0.0,0.0,33,0.00,,BKN120,0.00,VWS V14.01,2013-03-20 11:14:00,
2013-03-20 07:20:00,36.5,10.1,30.17,North,358,0.0,0.0,33,0.00,,BKN120,0.00,VWS V14.01,2013-03-20 11:20:00,
2013-03-20 07:26:00,36.2,13.6,30.17,North,358,0.0,0.0,39,0.00,,BKN120,0.00,VWS V14.01,2013-03-20 11:26:00,
2013-03-20 07:33:00,36.0,10.4,30.17,North,358,0.0,0.0,34,0.00,,BKN120,0.00,VWS V14.01,2013-03-20 11:33:00,
2013-03-20 07:39:00,36.0,10.4,30.17,North,358,0.0,0.0,34,0.00,,BKN120,0.00,VWS V14.01,2013-03-20 11:39:00,
2013-03-20 07:45:00,36.0,10.4,30.18,North,358,0.0,0.0,34,0.00,,BKN120,0.00,VWS V14.01,2013-03-20 11:45:00,
2013-03-20 07:50:00,36.2,10.6,30.18,North,358,0.0,0.0,34,0.00,,BKN120,0.00,VWS V14.01,2013-03-20 11:50:00,
2013-03-20 07:57:00,36.2,11.8,30.18,North,358,0.0,0.0,36,0.00,,BKN120,0.00,VWS V14.01,2013-03-20 11:57:00,
2013-03-20 08:03:00,36.3,11.3,30.19,North,358,0.0,0.0,35,0.00,,BKN200,0.00,VWS V14.01,2013-03-20 12:03:00,
2013-03-20 08:09:00,36.6,15.1,30.19,North,358,0.0,0.0,41,0.00,,BKN200,0.00,VWS V14.01,2013-03-20 12:09:00,
2013-03-20 08:15:00,36.8,18.5,30.20,North,358,0.0,0.0,47,0.00,,BKN200,0.00,VWS V14.01,2013-03-20 12:15:00,
2013-03-20 08:20:00,37.0,14.9,30.20,North,358,0.0,0.0,40,0.00,,BKN200,0.00,VWS V14.01,2013-03-20 12:20:00,
2013-03-20 08:26:00,37.3,18.4,30.20,North,358,0.0,0.0,46,0.00,,BKN200,0.00,VWS V14.01,2013-03-20 12:26:00,
2013-03-20 08:32:00,37.6,19.2,30.19,North,358,0.0,0.0,47,0.00,,BKN200,0.00,VWS V14.01,2013-03-20 12:32:00,
2013-03-20 08:38:00,38.2,18.2,30.19,North,358,0.0,0.0,44,0.00,,BKN200,0.00,VWS V14.01,2013-03-20 12:38:00,
2013-03-20 08:44:00,38.8,13.5,30.19,North,358,0.0,0.0,35,0.00,,BKN200,0.00,VWS V14.01,2013-03-20 12:44:00,
2013-03-20 08:50:00,39.3,14.6,30.21,North,358,0.0,0.0,36,0.00,,BKN200,0.00,VWS V14.01,2013-03-20 12:50:00,
2013-03-20 08:56:00,39.9,13.8,30.21,North,358,0.0,0.0,34,0.00,,BKN200,0.00,VWS V14.01,2013-03-20 12:56:00,
2013-03-20 09:02:00,40.3,12.1,30.20,WNW,293,0.0,0.0,31,0.00,,BKN200,0.00,VWS V14.01,2013-03-20 13:02:00,
2013-03-20 09:08:00,40.8,12.5,30.20,WNW,293,0.0,1.0,31,0.00,,BKN200,0.00,VWS V14.01,2013-03-20 13:08:00,
2013-03-20 09:14:00,41.2,12.1,30.20,West,272,0.0,1.0,30,0.00,,BKN200,0.00,VWS V14.01,2013-03-20 13:14:00,
2013-03-20 09:20:00,41.5,12.4,30.22,West,272,0.0,1.0,30,0.00,,BKN200,0.00,VWS V14.01,2013-03-20 13:20:00,
2013-03-20 09:26:00,41.8,11.9,30.22,West,272,0.0,1.0,29,0.00,,BKN200,0.00,VWS V14.01,2013-03-20 13:26:00,
2013-03-20 09:33:00,42.1,12.1,30.22,West,272,0.0,1.0,29,0.00,,BKN200,0.00,VWS V14.01,2013-03-20 13:33:00,
2013-03-20 09:39:00,42.5,11.7,30.22,West,272,0.0,1.0,28,0.00,,BKN200,0.00,VWS V14.01,2013-03-20 13:39:00,
2013-03-20 09:45:00,42.6,11.8,30.22,NNW,340,1.0,2.0,28,0.00,,BKN200,0.00,VWS V14.01,2013-03-20 13:45:00,
2013-03-20 09:50:00,43.1,11.4,30.22,NW,317,2.0,2.0,27,0.00,,BKN200,0.00,VWS V14.01,2013-03-20 13:50:00,
2013-03-20 09:55:00,43.5,11.8,30.22,WNW,299,0.0,2.0,27,0.00,,BKN200,0.00,VWS V14.01,2013-03-20 13:55:00,
2013-03-20 10:01:00,43.8,12.0,30.22,WNW,283,0.0,0.0,27,0.00,,BKN200,0.00,VWS V14.01,2013-03-20 14:01:00,
2013-03-20 10:08:00,43.8,10.3,30.22,WNW,302,0.0,5.0,25,0.00,,BKN200,0.00,VWS V14.01,2013-03-20 14:08:00,
2013-03-20 10:14:00,44.1,10.5,30.22,SSW,203,1.0,1.0,25,0.00,,BKN200,0.00,VWS V14.01,2013-03-20 14:14:00,
2013-03-20 10:20:00,44.3,12.4,30.23,WNW,297,1.0,3.0,27,0.00,,BKN200,0.00,VWS V14.01,2013-03-20 14:20:00,
2013-03-20 10:22:00,44.3,11.6,30.23,NW,316,0.0,4.0,26,0.00,,BKN200,0.00,VWS V14.01,2013-03-20 14:22:00,
2013-03-20 10:30:00,44.5,12.6,30.22,NW,306,1.0,4.0,27,0.00,,BKN200,0.00,VWS V14.01,2013-03-20 14:30:00,
2013-03-20 10:40:00,44.8,12.9,30.22,NW,321,2.0,3.0,27,0.00,,BKN200,0.00,VWS V14.01,2013-03-20 14:40:00,
2013-03-20 10:50:00,44.6,8.1,30.23,WNW,294,2.0,4.0,22,0.00,,BKN200,0.00,VWS V14.01,2013-03-20 14:50:00,
2013-03-20 11:00:00,45.4,9.8,30.21,North,0,0.0,3.0,23,0.00,,BKN200,0.00,VWS V14.01,2013-03-20 15:00:00,
2013-03-20 11:10:00,46.4,9.6,30.21,North,3,1.0,1.0,22,0.00,,BKN200,0.00,VWS V14.01,2013-03-20 15:10:00,
2013-03-20 11:20:00,46.2,8.4,30.21,NE,39,1.0,3.0,21,0.00,,BKN200,0.00,VWS V14.01,2013-03-20 15:20:00,
2013-03-20 11:30:00,46.8,8.9,30.21,North,0,0.0,2.0,21,0.00,,BKN200,0.00,VWS V14.01,2013-03-20 15:30:00,
2013-03-20 11:40:00,46.8,11.0,30.21,East,99,1.0,4.0,23,0.00,,BKN200,0.00,VWS V14.01,2013-03-20 15:40:00,
2013-03-20 11:50:00,47.3,10.4,30.21,SW,231,1.0,3.0,22,0.00,,BKN200,0.00,VWS V14.01,2013-03-20 15:50:00,
2013-03-20 12:00:00,47.4,8.4,30.20,NW,310,1.0,4.0,20,0.00,,BKN200,0.00,VWS V14.01,2013-03-20 16:00:00,
2013-03-20 12:10:00,47.7,9.7,30.20,North,354,1.0,4.0,21,0.00,,BKN200,0.00,VWS V14.01,2013-03-20 16:10:00,
2013-03-20 12:20:00,48.3,10.2,30.19,WNW,294,1.0,4.0,21,0.00,,BKN200,0.00,VWS V14.01,2013-03-20 16:20:00,
2013-03-20 12:30:00,48.5,9.3,30.18,South,191,1.0,5.0,20,0.00,,BKN200,0.00,VWS V14.01,2013-03-20 16:30:00,
2013-03-20 12:40:00,48.6,9.4,30.18,West,275,2.0,5.0,20,0.00,,BKN200,0.00,VWS V14.01,2013-03-20 16:40:00,
2013-03-20 12:50:00,48.6,9.4,30.18,SSE,153,0.0,3.0,20,0.00,,BKN200,0.00,VWS V14.01,2013-03-20 16:50:00,
2013-03-20 13:00:00,49.2,8.7,30.17,SW,228,1.0,6.0,19,0.00,,BKN200,0.00,VWS V14.01,2013-03-20 17:00:00,
2013-03-20 13:10:00,49.1,9.8,30.17,NW,323,0.0,3.0,20,0.00,,BKN200,0.00,VWS V14.01,2013-03-20 17:10:00,
2013-03-20 13:20:00,49.4,11.1,30.16,NW,326,3.0,5.0,21,0.00,,BKN200,0.00,VWS V14.01,2013-03-20 17:20:00,
2013-03-20 13:30:00,49.5,11.2,30.15,West,271,1.0,6.0,21,0.00,,BKN200,0.00,VWS V14.01,2013-03-20 17:30:00,
2013-03-20 13:40:00,49.5,9.0,30.15,SW,217,0.0,5.0,19,0.00,,BKN200,0.00,VWS V14.01,2013-03-20 17:40:00,
2013-03-20 13:50:00,50.4,9.7,30.14,North,352,1.0,5.0,19,0.00,,BKN200,0.00,VWS V14.01,2013-03-20 17:50:00,
2013-03-20 14:00:00,51.7,10.8,30.12,SW,219,2.0,6.0,19,0.00,,BKN200,0.00,VWS V14.01,2013-03-20 18:00:00,
2013-03-20 14:10:00,51.6,10.7,30.12,SSW,201,0.0,6.0,19,0.00,,BKN200,0.00,VWS V14.01,2013-03-20 18:10:00,
2013-03-20 14:20:00,52.2,11.2,30.10,WSW,239,5.0,9.0,19,0.00,,BKN200,0.00,VWS V14.01,2013-03-20 18:20:00,
2013-03-20 14:30:00,51.7,9.6,30.10,SW,229,7.0,9.0,18,0.00,,BKN200,0.00,VWS V14.01,2013-03-20 18:30:00,
2013-03-20 14:40:00,52.2,11.2,30.10,WNW,282,2.0,7.0,19,0.00,,BKN200,0.00,VWS V14.01,2013-03-20 18:40:00,
2013-03-20 14:50:00,52.5,9.0,30.08,SW,227,4.0,14.0,17,0.00,,BKN200,0.00,VWS V14.01,2013-03-20 18:50:00,
2013-03-20 15:00:00,52.6,11.5,30.08,West,274,3.0,7.0,19,0.00,,BKN200,0.00,VWS V14.01,2013-03-20 19:00:00,
2013-03-20 15:10:00,54.7,12.1,30.08,East,96,0.0,5.0,18,0.00,,BKN200,0.00,VWS V14.01,2013-03-20 19:10:00,
2013-03-20 15:20:00,54.7,10.8,30.07,ENE,68,1.0,7.0,17,0.00,,BKN200,0.00,VWS V14.01,2013-03-20 19:20:00,
2013-03-20 15:30:00,54.4,10.5,30.05,West,261,0.0,7.0,17,0.00,,BKN200,0.00,VWS V14.01,2013-03-20 19:30:00,
2013-03-20 15:40:00,54.2,11.6,30.05,South,190,0.0,6.0,18,0.00,,BKN200,0.00,VWS V14.01,2013-03-20 19:40:00,
2013-03-20 15:50:00,53.8,12.5,30.04,WNW,302,4.0,7.0,19,0.00,,BKN200,0.00,VWS V14.01,2013-03-20 19:50:00,
2013-03-20 16:00:00,54.1,12.8,30.02,SW,226,4.0,12.0,19,0.00,,BKN200,0.00,VWS V14.01,2013-03-20 20:00:00,
2013-03-20 16:10:00,54.7,12.1,30.02,SW,215,1.0,9.0,18,0.00,,BKN200,0.00,VWS V14.01,2013-03-20 20:10:00,
2013-03-20 16:20:00,55.3,13.8,30.02,ESE,122,2.0,5.0,19,0.00,,BKN200,0.00,VWS V14.01,2013-03-20 20:20:00,
2013-03-20 16:30:00,55.0,12.3,30.01,WNW,290,0.0,5.0,18,0.00,,BKN200,0.00,VWS V14.01,2013-03-20 20:30:00,
2013-03-20 16:40:00,55.0,12.3,30.01,WNW,297,3.0,5.0,18,0.00,,BKN200,0.00,VWS V14.01,2013-03-20 20:40:00,
2013-03-20 16:50:00,54.7,13.3,30.00,SE,131,1.0,11.0,19,0.00,,BKN200,0.00,VWS V14.01,2013-03-20 20:50:00,
2013-03-20 17:00:00,54.8,13.4,29.99,SSW,195,1.0,10.0,19,0.00,,BKN200,0.00,VWS V14.01,2013-03-20 21:00:00,
2013-03-20 17:10:00,55.1,13.6,29.99,SW,214,0.0,7.0,19,0.00,,BKN200,0.00,VWS V14.01,2013-03-20 21:10:00,
2013-03-20 17:20:00,55.0,13.5,29.99,WSW,246,3.0,8.0,19,0.00,,BKN200,0.00,VWS V14.01,2013-03-20 21:20:00,
2013-03-20 17:30:00,54.5,11.9,29.98,SW,217,0.0,8.0,18,0.00,,BKN200,0.00,VWS V14.01,2013-03-20 21:30:00,
2013-03-20 17:40:00,54.4,15.3,29.98,South,183,1.0,5.0,21,0.00,,BKN200,0.00,VWS V14.01,2013-03-20 21:40:00,
2013-03-20 17:50:00,54.7,13.3,29.98,SW,221,2.0,5.0,19,0.00,,BKN200,0.00,VWS V14.01,2013-03-20 21:50:00,
2013-03-20 18:00:00,55.1,12.4,29.98,West,266,3.0,6.0,18,0.00,,BKN200,0.00,VWS V14.01,2013-03-20 22:00:00,
2013-03-20 18:10:00,54.8,13.4,29.98,WSW,241,3.0,7.0,19,0.00,,BKN200,0.00,VWS V14.01,2013-03-20 22:10:00,
2013-03-20 18:20:00,54.5,13.1,29.98,WSW,256,3.0,5.0,19,0.00,,BKN200,0.00,VWS V14.01,2013-03-20 22:20:00,
2013-03-20 18:30:00,53.9,14.9,29.98,WSW,238,1.0,6.0,21,0.00,,BKN200,0.00,VWS V14.01,2013-03-20 22:30:00,
2013-03-20 18:40:00,53.8,15.9,29.98,WSW,248,0.0,7.0,22,0.00,,BKN200,0.00,VWS V14.01,2013-03-20 22:40:00,
2013-03-20 18:50:00,53.3,14.4,29.98,WSW,246,0.0,5.0,21,0.00,,BKN200,0.00,VWS V14.01,2013-03-20 22:50:00,
2013-03-20 19:00:00,52.8,14.0,29.98,SSW,200,0.0,5.0,21,0.00,,BKN200,0.00,VWS V14.01,2013-03-20 23:00:00,
2013-03-20 19:10:00,52.2,14.5,29.98,WSW,241,0.0,4.0,22,0.00,,BKN200,0.00,VWS V14.01,2013-03-20 23:10:00,
2013-03-20 19:20:00,51.4,15.8,29.98,SSW,207,0.0,3.0,24,0.00,,BKN200,0.00,VWS V14.01,2013-03-20 23:20:00,
2013-03-20 19:30:00,50.4,17.7,29.98,SSW,207,0.0,0.0,27,0.00,,BKN200,0.00,VWS V14.01,2013-03-20 23:30:00,
2013-03-20 19:40:00,48.9,17.2,29.98,SSW,207,0.0,0.0,28,0.00,,BKN200,0.00,VWS V14.01,2013-03-20 23:40:00,
2013-03-20 19:50:00,47.6,18.5,29.97,SSW,207,0.0,0.0,31,0.00,,BKN200,0.00,VWS V14.01,2013-03-20 23:50:00,
2013-03-20 20:00:00,46.4,18.9,29.97,SSW,207,0.0,0.0,33,0.00,,BKN200,0.00,VWS V14.01,2013-03-21 00:00:00,
2013-03-20 20:10:00,45.7,19.6,29.97,SSW,207,0.0,0.0,35,0.00,,BKN200,0.00,VWS V14.01,2013-03-21 00:10:00,
2013-03-20 20:20:00,44.9,19.6,29.97,SSW,207,0.0,0.0,36,0.00,,BKN200,0.00,VWS V14.01,2013-03-21 00:20:00,
2013-03-20 20:30:00,44.5,19.2,29.97,SSW,207,0.0,0.0,36,0.00,,BKN200,0.00,VWS V14.01,2013-03-21 00:30:00,
2013-03-20 20:40:00,44.1,20.1,29.97,SSW,207,0.0,0.0,38,0.00,,BKN200,0.00,VWS V14.01,2013-03-21 00:40:00,
2013-03-20 20:50:00,43.5,20.2,29.97,SSW,207,0.0,0.0,39,0.00,,BKN200,0.00,VWS V14.01,2013-03-21 00:50:00,
2013-03-20 21:00:00,43.3,18.8,29.96,SSW,207,0.0,0.0,37,0.00,,BKN200,0.00,VWS V14.01,2013-03-21 01:00:00,
2013-03-20 21:10:00,43.2,18.7,29.96,SSW,207,0.0,0.0,37,0.00,,BKN200,0.00,VWS V14.01,2013-03-21 01:10:00,
2013-03-20 21:20:00,42.9,19.7,29.96,SSW,207,0.0,0.0,39,0.00,,BKN200,0.00,VWS V14.01,2013-03-21 01:20:00,
2013-03-20 21:30:00,42.5,19.3,29.96,SSW,207,0.0,0.0,39,0.00,,BKN200,0.00,VWS V14.01,2013-03-21 01:30:00,
2013-03-20 21:40:00,42.2,19.6,29.96,SSW,207,0.0,0.0,40,0.00,,BKN200,0.00,VWS V14.01,2013-03-21 01:40:00,
2013-03-20 21:50:00,42.1,19.5,29.95,SSW,207,0.0,0.0,40,0.00,,BKN200,0.00,VWS V14.01,2013-03-21 01:50:00,
2013-03-20 22:00:00,41.6,20.2,29.96,SSW,207,0.0,0.0,42,0.00,,BKN200,0.00,VWS V14.01,2013-03-21 02:00:00,
2013-03-20 22:10:00,41.3,21.6,29.96,SSW,192,0.0,1.0,45,0.00,,BKN200,0.00,VWS V14.01,2013-03-21 02:10:00,
2013-03-20 22:20:00,41.3,19.4,29.95,SSW,192,0.0,1.0,41,0.00,,BKN200,0.00,VWS V14.01,2013-03-21 02:20:00,
2013-03-20 22:30:00,40.9,21.2,29.95,SSW,192,0.0,0.0,45,0.00,,BKN200,0.00,VWS V14.01,2013-03-21 02:30:00,
2013-03-20 22:40:00,40.3,21.2,29.95,SSW,192,0.0,0.0,46,0.00,,BKN200,0.00,VWS V14.01,2013-03-21 02:40:00,
2013-03-20 22:50:00,39.6,21.0,29.95,SSW,192,0.0,0.0,47,0.00,,BKN200,0.00,VWS V14.01,2013-03-21 02:50:00,
2013-03-20 23:00:00,39.2,21.2,29.94,SSW,192,0.0,0.0,48,0.00,,BKN200,0.00,VWS V14.01,2013-03-21 03:00:00,
2013-03-20 23:10:00,38.8,20.8,29.94,SSW,192,0.0,0.0,48,0.00,,BKN200,0.00,VWS V14.01,2013-03-21 03:10:00,
2013-03-20 23:20:00,38.3,21.3,29.93,SSW,192,0.0,1.0,50,0.00,,BKN200,0.00,VWS V14.01,2013-03-21 03:20:00,
2013-03-20 23:30:00,38.2,21.2,29.92,SSW,192,0.0,0.0,50,0.00,,BKN200,0.00,VWS V14.01,2013-03-21 03:30:00,
2013-03-20 23:40:00,38.3,21.8,29.92,SSW,192,0.0,1.0,51,0.00,,BKN200,0.00,VWS V14.01,2013-03-21 03:40:00,
2013-03-20 23:50:00,38.5,22.0,29.92,SSW,192,0.0,0.0,51,0.00,,BKN200,0.00,VWS V14.01,2013-03-21 03:50:00,